Temperature
0 0 0 0 0 0 0 0 0 0 0 0 0 0 1 1 1 1 1 1 1 1 1 1 1 1 1 1 1 0 1 1 1 1 1 1 1 1 1 2 2 2 2
-0 -0 -0 -0 -0 -0 -0 -0 -0 -0 -0 -0 -0 -0 -0 -0 -0 -0 -0 -0 -0 -0 -0 -0 -0 -0 -0 -0 -0 -0 0 0 0 0 0 0 0 0 1 1 1 1 1
-1 -1 -1 -1 -1 -1 -1 -1 -1 -1 -1 -1 -1 -1 -1 -1 -1 -1 -1 -1 -1 -1 -1 -1 -1 -1 -1 -1 -1 -1 -1 -1 -1 -1 -0 -0 -0 -0 -0 -0 0 0 1
-2 -2 -1 -1 -1 -1 -1 -1 -1 -1 -1 -2 -2 -2 -2 -2 -2 -2 -2 -2 -2 -2 -2 -2 -2 -2 -1 -1 -1 -1 -1 -1 -2 -2 -1 -1 -1 -1 -1 -1 -1 -0 -0
-2 -2 -2 -2 -2 -2 -2 -2 -2 -2 -2 -2 -2 -2 -2 -2 -2 -2 -3 -3 -2 -2 -2 -2 -2 -2 -2 -2 -2 -2 -2 -2 -2 -2 -2 -2 -2 -2 -2 -2 -2 -1 -1
-3 -3 -3 -3 -3 -3 -3 -3 -3 -3 -3 -3 -3 -3 -3 -3 -3 -3 -3 -3 -3 -3 -3 -3 -3 -3 -3 -3 -3 -3 -3 -3 -3 -3 -3 -3 -3 -3 -3 -3 -3 -3 -2
-4 -4 -4 -4 -3 -3 -3 -3 -3 -3 -3 -3 -3 -3 -3 -3 -4 -4 -4 -4 -4 -3 -3 -3 -3 -3 -3 -3 -3 -3 -4 -4 -4 -4 -4 -4 -3 -3 -3 -3 -3 -4 -3
-5 -5 -5 -5 -4 -4 -4 -4 -4 -4 -4 -4 -4 -4 -4 -4 -4 -4 -4 -5 -4 -4 -4 -4 -4 -4 -4 -4 -4 -4 -4 -4 -4 -4 -4 -4 -4 -4 -4 -4 -4 -4 -4
-6 -6 -5 -5 -5 -5 -5 -5 -5 -5 -5 -5 -5 -5 -5 -5 -5 -5 -5 -5 -5 -5 -5 -5 -5 -5 -5 -5 -5 -4 -5 -5 -5 -5 -5 -5 -5 -5 -5 -5 -5 -5 -5
-6 -6 -6 -6 -6 -6 -6 -6 -6 -6 -6 -6 -6 -5 -5 -5 -5 -6 -6 -6 -6 -6 -6 -6 -6 -5 -5 -5 -5 -5 -6 -6 -6 -6 -6 -6 -6 -6 -6 -6 -6 -6 -6
-7 -7 -7 -7 -7 -6 -6 -6 -6 -6 -6 -6 -6 -6 -6 -6 -6 -6 -6 -7 -6 -6 -6 -6 -6 -6 -6 -6 -6 -6 -6 -7 -7 -7 -7 -7 -6 -6 -6 -6 -6 -6 -6
-8 -8 -7 -7 -7 -7 -7 -7 -7 -7 -7 -7 -7 -7 -7 -7 -7 -7 -7 -7 -7 -7 -7 -7 -7 -7 -7 -7 -7 -7 -7 -7 -7 -7 -7 -7 -7 -7 -7 -7 -7 -7 -7
-8 -8 -8 -8 -8 -8 -8 -8 -8 -8 -8 -8 -8 -8 -8 -8 -8 -8 -8 -8 -8 -8 -7 -7 -7 -8 -8 -8 -8 -8 -8 -8 -8 -8 -8 -8 -8 -8 -8 -8 -7 -7 -7
-9 -9 -9 -9 -9 -9 -9 -9 -9 -9 -9 -9 -9 -9 -9 -9 -8 -8 -8 -8 -8 -8 -8 -8 -8 -8 -8 -8 -8 -8 -8 -8 -8 -8 -8 -8 -8 -8 -8 -8 -8 -8 -8
-9 -9 -9 -9 -9 -9 -9 -9 -9 -9 -9 -9 -9 -9 -9 -9 -9 -9 -9 -9 -9 -9 -9 -9 -9 -9 -9 -9 -9 -9 -9 -9 -9 -9 -9 -9 -9 -9 -9 -9 -9 -9 -9
-10 -10 -10 -10 -10 -10 -10 -10 -10 -10 -10 -10 -10 -10 -10 -10 -10 -10 -10 -10 -9 -9 -9 -9 -10 -10 -10 -10 -10 -10 -10 -10 -9 -9 -9 -10 -10 -10 -10 -9 -9 -9 -9
-10 -10 -10 -10 -10 -11 -11 -11 -11 -10 -10 -10 -10 -11 -10 -10 -10 -10 -10 -10 -10 -10 -10 -10 -10 -10 -11 -10 -10 -10 -10 -10 -10 -10 -10 -10 -10 -10 -10 -10 -10 -10 -10
-11 -11 -11 -11 -11 -11 -11 -11 -11 -11 -11 -11 -11 -11 -11 -11 -11 -11 -11 -10 -10 -10 -11 -11 -11 -11 -11 -11 -11 -11 -11 -11 -11 -11 -11 -11 -11 -11 -11 -11 -11 -11 -11
-11 -11 -11 -11 -11 -12 -12 -12 -12 -12 -12 -12 -12 -11 -11 -11 -11 -11 -11 -11 -11 -11 -11 -11 -11 -11 -11 -11 -11 -11 -11 -11 -11 -11 -11 -11 -11 -11 -11 -11 -11 -11 -11
-12 -12 -12 -12 -12 -12 -12 -12 -12 -12 -12 -12 -12 -12 -12 -12 -12 -12 -11 -12 -12 -12 -12 -12 -12 -12 -12 -12 -12 -12 -12 -12 -12 -12 -12 -12 -12 -12 -12 -12 -12 -12 -12
-12 -12 -12 -12 -12 -12 -12 -12 -12 -13 -13 -13 -13 -12 -13 -12 -12 -12 -12 -12 -12 -12 -12 -12 -12 -12 -12 -12 -12 -12 -12 -12 -12 -12 -12 -12 -12 -12 -12 -12 -12 -12 -12
-13 -13 -13 -13 -13 -13 -13 -13 -13 -13 -13 -13 -13 -13 -13 -13 -12 -12 -12 -12 -13 -13 -13 -13 -13 -12 -12 -12 -12 -12 -12 -12 -12 -12 -12 -12 -13 -13 -13 -13 -13 -13 -13
-13 -13 -13 -13 -13 -13 -13 -13 -13 -13 -13 -13 -13 -13 -13 -13 -13 -13 -13 -13 -13 -13 -13 -13 -13 -13 -13 -13 -13 -13 -13 -13 -13 -13 -13 -13 -13 -13 -13 -13 -13 -13 -13
-14 -14 -14 -13 -13 -14 -14 -14 -14 -14 -14 -13 -13 -13 -13 -13 -13 -13 -13 -13 -13 -13 -13 -13 -13 -13 -13 -13 -13 -13 -13 -13 -13 -13 -13 -13 -13 -13 -13 -13 -13 -13 -13
-14 -14 -14 -14 -14 -14 -14 -14 -14 -14 -14 -14 -14 -14 -14 -14 -14 -14 -13 -14 -14 -14 -14 -14 -14 -14 -13 -13 -13 -13 -13 -13 -13 -13 -13 -13 -13 -13 -13 -13 -13 -13 -13
-14 -14 -14 -14 -14 -14 -15 -15 -15 -14 -14 -14 -14 -14 -14 -14 -14 -14 -14 -14 -14 -14 -14 -14 -14 -14 -14 -14 -14 -14 -14 -14 -14 -14 -14 -14 -14 -14 -14 -14 -13 -13 -13
Wind_Speed
1 1 1 1 2 2 2 2 2 2 2 2 3 3 3 3 3 3 4 4 4 4 3 4 4 3 3 3 3 3 3 3 5 4 2 1 2 3 4 6 7 7 8
2 1 1 1 1 2 2 2 2 2 2 3 3 3 4 3 3 3 4 4 4 5 5 4 5 4 4 3 3 4 3 3 4 5 3 2 3 3 3 4 6 7 8
3 2 2 2 1 2 2 2 2 2 2 3 3 3 4 4 4 4 4 4 5 5 5 5 5 4 5 4 3 4 3 3 3 4 4 2 2 2 3 4 4 5 7
3 2 2 2 2 2 2 2 2 2 2 3 4 4 4 4 4 4 4 4 4 4 5 5 5 5 6 5 4 4 3 3 3 4 4 3 3 3 2 3 4 3 5
3 3 3 2 2 2 2 2 2 2 3 3 3 4 4 4 5 4 4 5 5 5 5 5 5 6 7 6 5 4 4 4 3 4 4 4 3 3 3 3 4 4 5
3 3 3 3 2 2 2 2 1 2 2 3 3 4 4 5 7 8 6 5 5 5 6 5 5 6 7 8 8 8 7 6 5 5 5 6 5 4 3 4 4 4 5
3 3 3 3 2 3 3 2 2 2 2 3 3 3 4 5 8 8 8 4 4 5 5 5 4 5 5 4 6 7 7 9 9 6 6 7 5 4 4 5 5 5 6
3 4 3 3 3 3 3 3 3 2 3 3 3 3 4 5 7 8 7 4 4 4 4 5 5 4 5 4 3 4 4 5 6 5 6 6 6 5 5 5 5 5 5
4 4 4 3 2 3 3 3 3 2 3 3 3 3 4 5 7 8 7 3 3 4 4 4 5 5 7 7 5 4 4 4 6 7 8 8 9 9 7 4 4 5 6
5 4 4 3 3 3 3 3 3 3 3 3 4 3 4 4 7 7 6 3 3 3 3 4 6 6 8 8 5 4 5 5 4 4 5 6 5 6 8 6 5 5 5
5 5 5 4 4 3 3 3 3 3 3 3 4 3 3 5 6 7 6 3 4 4 4 3 4 7 8 8 6 4 6 5 4 4 4 4 3 3 4 5 5 5 6
5 5 5 4 4 3 3 3 3 3 3 3 3 3 3 3 5 5 6 6 5 4 4 3 4 7 7 7 5 6 7 6 3 3 3 4 3 3 3 4 6 7 7
5 5 5 5 4 4 3 3 3 2 2 3 2 3 3 2 3 6 6 5 6 3 3 5 5 6 5 4 5 6 5 3 3 3 4 4 4 4 3 4 5 5 6
4 5 4 4 4 4 3 3 2 2 2 3 3 3 3 3 2 3 3 3 4 3 2 3 4 4 3 3 4 3 3 3 3 4 4 3 2 3 3 3 4 3 4
4 4 4 4 4 3 3 2 3 2 3 4 3 3 3 3 4 6 4 3 2 2 1 0 1 1 1 2 2 2 2 2 3 2 3 3 3 3 3 3 3 3 4
4 4 4 3 3 3 3 3 4 5 7 7 6 6 5 6 7 8 8 7 5 3 1 1 2 2 2 2 2 2 2 2 2 2 3 3 3 4 4 3 3 3 4
4 4 4 4 4 4 4 4 4 5 6 6 7 7 7 8 8 7 7 6 5 3 2 2 2 2 2 2 2 2 2 2 2 2 3 3 3 4 4 4 4 4 4
4 5 4 3 3 3 4 4 4 4 5 4 6 7 7 7 7 7 6 4 3 2 1 2 2 2 2 2 2 2 2 2 2 2 2 3 3 3 4 4 4 4 4
4 3 3 3 3 3 4 4 4 4 4 4 4 5 7 7 7 7 5 2 2 2 2 2 2 2 2 2 2 2 2 2 2 2 3 3 3 3 4 4 4 6 5
4 6 5 4 3 3 3 3 4 4 4 4 4 4 4 4 3 3 3 2 2 2 2 2 2 2 2 2 3 2 2 3 3 3 3 3 3 3 4 5 4 4 4
3 4 6 4 3 3 3 4 4 4 4 4 4 5 6 3 3 3 3 2 2 2 2 2 2 2 2 2 2 3 3 3 3 3 3 3 3 4 4 4 4 4 4
3 3 3 3 3 3 3 3 3 4 4 4 4 5 7 4 3 3 3 3 2 2 2 2 2 2 2 2 2 2 3 3 3 3 3 4 4 4 4 4 4 4 4
3 3 3 3 3 4 4 3 3 4 4 4 4 4 4 3 3 3 3 3 3 2 3 2 2 3 3 4 4 3 3 4 4 4 4 4 4 4 4 4 5 5 5
3 3 3 3 3 3 3 4 4 4 4 4 4 4 4 4 4 4 3 3 3 3 3 3 3 3 4 4 5 5 6 6 6 6 6 5 5 4 4 4 5 5 5
3 3 3 3 3 3 3 4 4 4 4 4 4 4 4 4 4 4 3 3 3 3 4 4 4 4 5 5 6 6 7 8 8 7 6 5 4 5 4 5 5 5 5
3 3 3 3 3 3 3 4 4 4 5 5 4 4 4 4 4 4 4 3 3 3 4 4 5 6 6 6 7 7 8 8 8 8 5 3 3 3 3 4 4 4 4
Wind_Direction
296 296 303 279 283 273 247 239 237 241 231 227 232 238 238 238 243 237 230 219 220 231 239 235 240 237 233 233 232 237 239 230 253 268 262 251 246 252 270 266 264 263 262
331 322 301 284 278 281 272 260 243 236 235 233 233 233 236 236 235 230 239 231 224 229 232 234 240 242 240 238 232 235 241 236 240 260 266 256 255 244 252 259 269 265 261
331 326 326 322 286 275 273 282 263 238 238 238 235 230 234 231 228 232 233 241 237 232 230 230 233 232 236 237 231 233 245 253 247 250 263 263 266 260 268 272 275 275 273
335 331 320 315 305 290 280 277 270 251 233 237 241 239 238 237 236 235 240 243 247 247 240 236 235 234 231 227 231 232 237 243 247 249 261 262 262 264 260 265 279 275 278
335 325 309 306 316 310 300 280 269 267 260 249 243 244 244 239 234 226 235 243 245 253 250 243 242 241 237 234 238 231 227 233 242 246 254 264 260 251 254 261 273 283 278
322 315 313 315 322 312 300 295 283 260 254 250 240 241 246 250 247 243 242 236 240 245 247 243 240 235 236 240 246 246 237 232 233 240 250 249 253 256 262 269 274 284 277
320 316 314 316 319 313 305 304 289 282 271 259 254 246 246 252 250 248 249 244 238 241 244 245 248 241 236 234 246 251 253 251 244 240 245 251 254 254 255 261 261 268 270
317 313 312 315 313 312 311 301 295 289 283 280 273 262 257 260 255 251 250 244 243 247 247 246 242 238 236 234 236 247 252 257 255 249 244 252 255 251 249 253 260 276 283
319 314 313 311 308 308 303 298 298 295 288 282 281 272 265 269 264 258 253 239 242 250 253 250 245 239 242 240 233 239 252 264 270 262 257 259 264 264 261 269 265 266 277
328 322 320 315 308 297 293 294 297 293 290 288 284 279 274 273 266 263 252 236 240 251 255 249 252 249 244 242 229 224 241 254 257 268 268 268 267 265 261 249 246 255 269
324 325 321 314 303 292 291 290 287 288 288 287 286 287 285 283 278 265 257 249 241 244 250 249 250 255 249 247 244 233 243 249 244 248 256 259 260 260 256 250 246 246 252
326 324 322 320 314 314 308 304 298 293 292 291 289 293 296 293 293 277 265 265 264 249 247 245 245 252 251 250 252 252 251 253 244 242 249 255 257 262 263 259 261 261 257
328 326 324 323 323 321 316 312 311 304 293 294 291 291 299 305 301 299 284 278 274 271 260 255 251 250 252 257 261 261 256 243 230 236 246 252 253 256 261 265 268 272 274
327 324 324 327 326 326 321 313 307 302 295 294 291 291 293 296 297 295 289 286 284 286 283 271 270 265 270 264 259 265 263 242 234 234 244 255 257 258 256 260 263 268 273
323 321 324 324 318 322 322 312 307 288 278 284 279 274 277 280 283 288 288 279 263 250 263 228 263 257 255 261 257 256 259 259 251 238 240 251 259 263 267 262 251 254 256
323 327 327 325 324 323 321 319 312 303 303 298 292 289 286 285 290 288 286 287 284 270 269 228 240 240 244 248 246 250 252 254 251 242 238 246 252 258 268 272 264 258 260
316 317 317 319 320 320 320 321 321 322 319 314 307 303 298 297 295 294 294 292 290 281 263 243 241 239 250 254 254 253 258 256 255 255 252 247 252 258 263 266 267 266 263
317 316 317 311 312 315 316 315 314 316 320 321 317 314 312 308 306 304 301 302 295 284 244 247 247 245 251 256 259 262 264 260 258 259 259 255 251 256 263 263 263 264 267
318 315 311 310 313 313 313 313 312 313 313 315 319 321 325 322 318 313 312 294 276 268 264 259 255 251 252 256 258 258 257 257 258 258 260 259 254 256 262 263 262 265 268
317 317 319 317 318 317 317 316 315 316 316 317 318 321 325 324 321 320 314 304 289 278 276 271 261 255 252 252 251 248 251 257 257 258 263 266 263 259 261 263 263 263 264
311 314 321 322 317 315 315 315 316 316 316 317 313 309 315 320 312 309 304 301 291 280 280 284 277 265 254 250 251 252 253 256 258 258 262 268 266 265 266 264 266 264 266
306 310 315 315 313 311 313 315 314 315 316 313 312 314 319 326 318 312 306 299 289 281 274 272 274 270 263 252 246 250 253 257 258 257 261 266 264 265 266 263 262 262 263
310 311 312 310 310 310 319 320 315 313 312 311 311 314 316 314 311 308 307 308 307 301 294 279 273 273 276 276 270 257 250 253 254 254 258 264 263 262 262 262 259 259 261
308 305 303 306 312 313 312 312 312 311 311 311 310 309 308 306 304 304 304 308 309 307 304 299 288 279 279 284 282 273 265 264 262 259 254 248 253 257 260 259 258 257 260
305 300 301 302 303 304 305 307 307 309 309 309 307 305 304 302 302 302 307 307 306 304 304 301 294 290 287 286 285 281 277 278 278 273 259 250 242 248 253 255 257 259 256
304 301 296 294 292 294 296 298 300 304 303 303 302 300 298 299 298 299 304 303 303 299 299 300 298 297 295 293 289 290 290 288 287 287 277 256 247 252 258 259 261 258 255
Height
1474 1475 1476 1476 1477 1478 1478 1479 1479 1480 1481 1482 1482 1483 1484 1485 1486 1486 1487 1489 1490 1491 1492 1493 1494 1495 1496 1497 1498 1499 1500 1501 1501 1500 1502 1503 1504 1504 1504 1504 1505 1505 1505
1472 1472 1472 1473 1473 1474 1474 1475 1476 1476 1477 1477 1478 1478 1479 1480 1481 1482 1482 1483 1484 1485 1487 1487 1489 1490 1491 1492 1493 1494 1495 1496 1496 1495 1496 1497 1498 1499 1499 1499 1499 1499 1499
1469 1469 1469 1469 1470 1470 1471 1471 1471 1472 1472 1473 1473 1474 1474 1475 1476 1477 1477 1478 1479 1480 1481 1482 1483 1484 1485 1486 1487 1488 1489 1490 1491 1491 1490 1491 1492 1493 1493 1493 1493 1493 1493
1466 1466 1466 1466 1466 1466 1467 1467 1467 1467 1468 1468 1469 1469 1469 1470 1471 1472 1473 1473 1474 1475 1476 1477 1478 1479 1480 1481 1482 1482 1483 1484 1485 1485 1485 1485 1486 1486 1487 1486 1486 1487 1487
1463 1463 1463 1463 1463 1463 1463 1463 1463 1463 1463 1464 1464 1464 1465 1465 1466 1467 1468 1469 1469 1470 1470 1471 1472 1473 1474 1475 1476 1477 1478 1478 1479 1479 1479 1479 1479 1480 1481 1480 1481 1480 1480
1460 1460 1459 1459 1459 1459 1459 1459 1459 1459 1459 1459 1459 1460 1460 1460 1461 1462 1463 1463 1464 1464 1465 1466 1467 1467 1468 1469 1470 1471 1472 1473 1473 1473 1473 1473 1473 1474 1475 1475 1475 1474 1473
1457 1457 1456 1456 1455 1455 1455 1455 1454 1454 1454 1454 1455 1455 1455 1455 1456 1457 1458 1458 1458 1459 1459 1460 1460 1461 1462 1463 1464 1465 1466 1467 1468 1468 1467 1467 1468 1469 1470 1470 1469 1469 1468
1454 1454 1453 1452 1452 1451 1451 1451 1450 1450 1450 1450 1450 1450 1450 1450 1451 1452 1452 1453 1453 1453 1454 1454 1455 1455 1456 1457 1458 1458 1459 1460 1461 1461 1461 1461 1462 1463 1464 1465 1464 1463 1462
1452 1451 1450 1449 1448 1448 1447 1447 1447 1446 1446 1446 1446 1446 1446 1446 1446 1447 1447 1447 1447 1448 1448 1448 1449 1449 1450 1452 1452 1452 1453 1454 1455 1455 1455 1456 1456 1457 1458 1458 1458 1457 1455
1450 1448 1447 1446 1446 1445 1444 1444 1443 1443 1442 1442 1441 1441 1441 1441 1441 1442 1443 1442 1442 1442 1443 1443 1444 1444 1445 1445 1446 1446 1446 1447 1448 1448 1449 1449 1450 1450 1451 1452 1452 1451 1450
1447 1446 1445 1444 1443 1442 1441 1440 1439 1439 1438 1438 1437 1437 1437 1437 1437 1437 1438 1438 1437 1437 1437 1437 1438 1439 1439 1440 1440 1440 1441 1442 1442 1443 1443 1443 1444 1444 1445 1445 1445 1446 1445
1445 1443 1442 1441 1440 1439 1438 1437 1436 1435 1434 1434 1433 1433 1433 1433 1433 1433 1433 1433 1433 1433 1432 1433 1433 1434 1434 1434 1434 1435 1436 1436 1436 1437 1437 1437 1438 1438 1439 1439 1440 1440 1440
1442 1441 1440 1438 1437 1436 1435 1434 1433 1432 1432 1431 1430 1429 1429 1429 1429 1429 1429 1429 1429 1428 1428 1429 1429 1429 1429 1429 1429 1430 1430 1430 1430 1431 1431 1431 1432 1433 1434 1434 1434 1434 1434
1440 1439 1437 1436 1435 1434 1433 1432 1431 1430 1429 1428 1427 1427 1426 1425 1425 1425 1425 1425 1424 1424 1424 1424 1425 1425 1425 1425 1425 1425 1425 1425 1426 1426 1426 1427 1428 1428 1428 1429 1428 1428 1428
1438 1437 1435 1434 1433 1431 1430 1430 1429 1428 1427 1426 1425 1424 1423 1422 1422 1422 1422 1421 1421 1420 1420 1420 1420 1420 1419 1420 1420 1420 1420 1421 1421 1422 1422 1422 1423 1423 1423 1424 1423 1423 1422
1436 1435 1433 1432 1431 1429 1428 1427 1426 1426 1424 1423 1423 1422 1420 1420 1419 1418 1418 1418 1417 1417 1417 1416 1415 1416 1415 1416 1416 1416 1416 1417 1417 1417 1417 1418 1418 1418 1418 1418 1418 1418 1417
1434 1433 1431 1430 1429 1427 1426 1425 1423 1422 1421 1420 1419 1418 1417 1416 1416 1415 1414 1414 1414 1413 1412 1412 1412 1412 1412 1412 1412 1413 1413 1413 1413 1413 1413 1413 1414 1414 1414 1413 1413 1413 1412
1432 1431 1429 1428 1427 1426 1424 1423 1421 1419 1418 1416 1416 1415 1414 1413 1412 1411 1411 1410 1410 1409 1408 1408 1408 1408 1409 1409 1409 1409 1409 1409 1409 1409 1409 1409 1409 1409 1409 1408 1408 1408 1407
1430 1428 1427 1426 1425 1423 1422 1421 1419 1418 1416 1414 1413 1412 1411 1410 1409 1408 1408 1407 1406 1405 1405 1405 1405 1405 1405 1405 1405 1405 1405 1405 1405 1405 1405 1405 1405 1405 1404 1404 1404 1404 1403
1427 1426 1425 1424 1423 1421 1420 1418 1417 1415 1414 1412 1411 1409 1408 1407 1406 1405 1404 1403 1402 1402 1402 1402 1402 1402 1402 1402 1402 1402 1402 1402 1402 1402 1401 1401 1401 1401 1400 1400 1399 1399 1398
1425 1424 1423 1422 1420 1419 1418 1416 1415 1413 1411 1410 1408 1407 1406 1404 1403 1402 1401 1400 1399 1399 1399 1399 1398 1398 1398 1398 1398 1398 1398 1398 1398 1398 1397 1397 1397 1397 1396 1395 1395 1394 1394
1423 1421 1420 1419 1418 1417 1415 1414 1413 1411 1409 1407 1405 1404 1403 1402 1400 1399 1398 1397 1396 1396 1396 1395 1395 1395 1394 1394 1394 1394 1394 1394 1394 1394 1393 1393 1393 1393 1392 1391 1391 1390 1390
1420 1419 1418 1417 1416 1415 1413 1412 1410 1409 1407 1405 1403 1401 1400 1398 1397 1396 1395 1394 1393 1393 1392 1392 1391 1391 1391 1391 1390 1390 1390 1390 1390 1390 1389 1389 1389 1388 1388 1387 1387 1386 1386
1418 1417 1416 1414 1413 1412 1411 1409 1408 1406 1404 1402 1400 1399 1397 1396 1395 1393 1392 1391 1390 1390 1389 1389 1388 1388 1387 1387 1387 1387 1387 1386 1386 1386 1385 1385 1384 1384 1384 1383 1382 1382 1381
1415 1414 1413 1412 1411 1409 1408 1406 1405 1403 1402 1400 1398 1396 1395 1393 1392 1391 1389 1388 1388 1387 1386 1386 1385 1384 1384 1384 1383 1383 1383 1382 1382 1382 1381 1381 1380 1380 1379 1378 1378 1377 1377
1412 1411 1410 1409 1408 1407 1405 1404 1402 1401 1399 1397 1396 1394 1392 1391 1389 1388 1387 1386 1385 1384 1383 1383 1382 1381 1381 1380 1380 1379 1379 1378 1378 1378 1377 1377 1376 1376 1375 1374 1374 1373 1373